Estherville, IA

2:36 AM CDT on July 26, 2017 (GMT -0500)
Estherville Municipal

Weather History for KEST - March, 2013

Change the Weather History Date:

Thursday, March 28, 2013

  Actual Average Record
Temperature  
Mean Temperature 37 °F 38 °F  
Max Temperature 48 °F 48 °F 75 °F (1989)
Min Temperature 26 °F 29 °F 2 °F (1970)
Degree Days  
Heating Degree Days 28 27  
Month to date heating degree days 1125 922  
Since 1 July heating degree days 6764 6837  
Cooling Degree Days 0 0  
Month to date cooling degree days 0 0  
Year to date cooling degree days 0 0  
Moisture  
Dew Point 31 °F    
Average Humidity 81    
Maximum Humidity 96    
Minimum Humidity 65    
Precipitation  
Precipitation 0.00 in 0.10 in 0.42 in (1998)
Month to date precipitation 1.05 1.36  
Sea Level Pressure  
Sea Level Pressure 30.29 in    
Wind  
Wind Speed 9 mph (SE)    
Max Wind Speed 15 mph    
Max Gust Speed 18 mph    
Visibility 9 miles    
Events      
T = Trace of Precipitation, MM = Missing Value Source: NWS Daily Summary

Daily Weather History Graph

Daily Weather History Graph

Search for Another Location

Airport or City:

Trip Planner

Search our weather history database for the weather conditions in past years. The results will help you decide how hot, cold, wet, or windy it might be!

Date:

Astronomy

Mar. 28, 2013 Rise Set
Actual Time 7:07 AM CDT 7:41 PM CDT
Civil Twilight 6:38 AM CDT 8:09 PM CDT
Nautical Twilight 6:04 AM CDT 8:43 PM CDT
Astronomical Twilight 5:29 AM CDT 9:19 PM CDT
Moon 9:38 PM CDT (3/28) 7:32 AM CDT (3/28)
Length of Visible Light 13h 31m
Length of Day
12h 33m
Full, 98% of the Moon is Illuminated
Mar 28
Full
Apr 2
Last Quarter
Apr 10
New
Apr 18
First Quarter
Apr 25
Full

Hourly Weather History & Observations

Time (CDT) Temp. Windchill Dew Point Humidity Pressure Visibility Wind Dir Wind Speed Gust Speed Precip Events Conditions
12:52 AM 30.9 °F 23.5 °F 27.0 °F 85% 30.33 in 10.0 mi SE 8.1 mph - N/A   Overcast
1:52 AM 30.9 °F 22.2 °F 26.1 °F 82% 30.32 in 10.0 mi SE 10.4 mph - N/A   Overcast
2:52 AM 30.0 °F 23.2 °F 25.0 °F 82% 30.32 in 10.0 mi SE 6.9 mph - N/A   Mostly Cloudy
4:52 AM 28.0 °F 22.8 °F 24.1 °F 85% 30.30 in 10.0 mi SE 4.6 mph - N/A   Clear
5:52 AM 27.0 °F 20.5 °F 24.1 °F 89% 30.31 in 10.0 mi SE 5.8 mph - N/A   Clear
6:52 AM 26.1 °F 19.4 °F 23.0 °F 88% 30.31 in 10.0 mi SE 5.8 mph - N/A   Clear
7:52 AM 28.0 °F 21.7 °F 25.0 °F 88% 30.32 in 10.0 mi SE 5.8 mph - N/A   Clear
8:52 AM 32.0 °F 24.8 °F 27.0 °F 82% 30.32 in 10.0 mi SE 8.1 mph - N/A   Clear
9:52 AM 34.0 °F 26.0 °F 28.9 °F 82% 30.32 in 10.0 mi SSE 10.4 mph - N/A   Overcast
10:52 AM 36.0 °F 27.5 °F 30.0 °F 79% 30.32 in 10.0 mi SSE 12.7 mph - N/A   Overcast
11:52 AM 39.0 °F 32.3 °F 32.0 °F 76% 30.31 in 10.0 mi SSE 10.4 mph - N/A   Clear
12:52 PM 43.0 °F 36.4 °F 35.1 °F 74% 30.30 in 9.0 mi SSE 12.7 mph - N/A   Clear
1:52 PM 44.1 °F 38.6 °F 35.1 °F 71% 30.28 in 8.0 mi SSE 10.4 mph - N/A   Mostly Cloudy
2:52 PM 46.9 °F - 36.0 °F 66% 30.27 in 9.0 mi SSE 15.0 mph - N/A   Clear
3:52 PM 46.9 °F - 37.0 °F 68% 30.25 in 9.0 mi SSE 12.7 mph - N/A   Clear
4:52 PM 46.9 °F - 37.0 °F 68% 30.25 in 9.0 mi South 11.5 mph - N/A   Clear
5:52 PM 46.0 °F 41.9 °F 37.0 °F 71% 30.25 in 9.0 mi SSE 8.1 mph - N/A   Clear
6:52 PM 44.1 °F 40.1 °F 37.0 °F 76% 30.26 in 8.0 mi SE 6.9 mph - N/A   Clear
7:52 PM 37.0 °F 31.0 °F 34.0 °F 89% 30.27 in 6.0 mi ESE 8.1 mph - N/A   Clear
8:52 PM 35.1 °F 28.6 °F 32.0 °F 89% 30.27 in 7.0 mi ESE 8.1 mph - N/A   Clear
9:52 PM 35.1 °F 27.9 °F 32.0 °F 89% 30.27 in 6.0 mi SE 9.2 mph - N/A   Clear
10:52 PM 34.0 °F 27.2 °F 30.9 °F 89% 30.27 in 6.0 mi SE 8.1 mph - N/A   Clear
11:52 PM 34.0 °F 28.0 °F 32.0 °F 92% 30.27 in 6.0 mi SSE 6.9 mph - N/A   Overcast